Location: Unspecified
(0.0000°N, 0.0000°E)
Time: 02:25:09
(UTC+00:00)

STARLINK-1053 - Pass Details

Date: 15 January 2020
Orbit: 546 x 548 km, 53.1° (Epoch: 18 January)

Event Time Altitude Azimuth Distance (km) Brightness Sun altitude
Rises 19:26:03 0° 316° (NW) 2,715 7.4 -17.8°
Reaches altitude 10° 19:28:20 10° 311° (NW) 1,825 6.6 -18.4°
Maximum altitude 19:32:20 48° 236° (SW) 733 4.6 -19.3°
Drops below altitude 10° 19:36:22 10° 161° (SSE) 1,835 6.3 -20.2°
Sets 19:38:40 0° 156° (SSE) 2,732 7.2 -20.8°
